Weather History for Scappoose, OR

Change the Weather History Date:

Saturday, May 4, 2013

  Actual Average Record
Temperature  
Mean Temperature 66 °F -  
Max Temperature 84 °F - 84 °F (2013)
Min Temperature 49 °F - 34 °F (2002)
Degree Days  
Heating Degree Days 0    
Month to date heating degree days 18  
Since 1 July heating degree days 4409  
Cooling Degree Days 2    
Month to date cooling degree days 3  
Year to date cooling degree days 3  
Growing Degree Days 16 (Base 50)    
Moisture  
Dew Point 42 °F    
Average Humidity 49    
Maximum Humidity 80    
Minimum Humidity 18    
Precipitation  
Precipitation 0.00 in - 0.38 in (2000)
Month to date precipitation 0.00  
Year to date precipitation 8.64  
Sea Level Pressure  
Sea Level Pressure 30.03 in    
Wind  
Wind Speed 5 mph (North)    
Max Wind Speed 14 mph    
Max Gust Speed 17 mph    
Visibility 10 miles    
Events      
T = Trace of Precipitation, MM = Missing Value Source: NWS Daily Summary

Daily Weather History Graph

Daily Weather History Graph

Search for Another Location

Airport:

Trip Planner

Search our weather history database for the weather conditions in past years. The results will help you decide how hot, cold, wet, or windy it might be!

Date:

Astronomy

May. 04, 2013 Rise Set
Actual Time 5:53 AM PDT 8:23 PM PDT
Civil Twilight 5:20 AM PDT 8:56 PM PDT
Nautical Twilight 4:38 AM PDT 9:38 PM PDT
Astronomical Twilight 3:51 AM PDT 10:26 PM PDT
Moon 3:11 AM PDT (5/4) 3:11 PM PDT (5/4)
Length of Visible Light 15h 36m
Length of Day
14h 29m
Waning Crescent, 26% of the Moon is Illuminated
May 4
Waning Crescent
May 9
New
May 17
First Quarter
May 24
Full
May 31
Last Quarter

Hourly Weather History & Observations

Time (PDT) Temp. Dew Point Humidity Pressure Visibility Wind Dir Wind Speed Gust Speed Precip Events Conditions
12:53 AM 62.1 °F 39.0 °F 43% 30.14 in 10.0 mi NNW 8.1 mph 17.3 mph N/A   Clear
1:53 AM 61.0 °F 39.9 °F 46% 30.13 in 10.0 mi NNW 6.9 mph - N/A   Clear
2:53 AM 59.0 °F 41.0 °F 51% 30.13 in 10.0 mi North 4.6 mph - N/A   Clear
3:53 AM 54.0 °F 41.0 °F 62% 30.12 in 10.0 mi Calm Calm - N/A   Clear
4:53 AM 55.0 °F 41.0 °F 59% 30.12 in 10.0 mi NNW 3.5 mph - N/A   Clear
5:53 AM 54.0 °F 41.0 °F 62% 30.13 in 10.0 mi North 3.5 mph - N/A   Clear
6:53 AM 50.0 °F 44.1 °F 80% 30.13 in 10.0 mi Calm Calm - N/A   Clear
7:53 AM 61.0 °F 44.1 °F 54% 30.13 in 10.0 mi North 6.9 mph - N/A   Clear
8:53 AM 64.9 °F 45.0 °F 48% 30.13 in 10.0 mi North 6.9 mph - N/A   Clear
9:53 AM 70.0 °F 44.1 °F 39% 30.11 in 10.0 mi North 6.9 mph - N/A   Clear
10:53 AM 73.0 °F 45.0 °F 37% 30.09 in 10.0 mi NNE 5.8 mph - N/A   Clear
11:53 AM 75.9 °F 46.0 °F 35% 30.07 in 10.0 mi Variable 3.5 mph - N/A   Clear
12:53 PM 78.1 °F 45.0 °F 31% 30.04 in 10.0 mi North 6.9 mph - N/A   Clear
1:53 PM 80.1 °F 44.1 °F 28% 30.01 in 10.0 mi Calm Calm - N/A   Clear
2:53 PM 82.0 °F 41.0 °F 23% 29.99 in 10.0 mi Variable 5.8 mph - N/A   Clear
3:53 PM 82.9 °F 36.0 °F 19% 29.96 in 10.0 mi NNE 9.2 mph 16.1 mph N/A   Clear
4:53 PM 82.0 °F 36.0 °F 19% 29.94 in 10.0 mi ENE 4.6 mph - N/A   Clear
5:53 PM 81.0 °F 39.0 °F 22% 29.92 in 10.0 mi ENE 8.1 mph - N/A   Clear
6:53 PM 79.0 °F 42.1 °F 27% 29.91 in 10.0 mi Calm Calm - N/A   Clear
7:53 PM 75.9 °F 36.0 °F 23% 29.91 in 10.0 mi NE 3.5 mph - N/A   Clear
8:53 PM 66.9 °F 42.1 °F 40% 29.92 in 10.0 mi WNW 4.6 mph - N/A   Clear
9:53 PM 68.0 °F 41.0 °F 37% 29.94 in 10.0 mi North 5.8 mph - N/A   Clear
10:53 PM 60.1 °F 42.1 °F 51% 29.92 in 10.0 mi WNW 3.5 mph - N/A   Clear
11:53 PM 57.9 °F 41.0 °F 53% 29.92 in 10.0 mi West 3.5 mph - N/A   Clear